Time,TemperatureF,DewpointF,PressureIn,WindDirection,WindDirectionDegrees,WindSpeedMPH,WindSpeedGustMPH,Humidity,HourlyPrecipIn,Conditions,Clouds,dailyrainin,SoftwareType,DateUTC
2013-10-31 00:01:00,57.0,41.0,29.85,ESE,105,2.0,6.0,54,0.00,,,0.00,,2013-10-31 07:01:00,
2013-10-31 00:22:00,55.0,39.0,29.86,North,0,0.0,0.0,55,0.00,,,0.00,,2013-10-31 07:22:00,
2013-10-31 00:32:00,55.0,39.0,29.86,North,0,0.0,0.0,55,0.00,,,0.00,,2013-10-31 07:32:00,
2013-10-31 01:21:00,55.0,39.0,29.85,North,354,12.0,16.0,55,0.00,,,0.00,,2013-10-31 08:21:00,
2013-10-31 01:32:00,55.0,39.0,29.85,North,354,12.0,16.0,55,0.00,,,0.00,,2013-10-31 08:32:00,
2013-10-31 01:52:00,56.0,39.0,29.85,NNE,13,9.0,13.0,52,0.00,,,0.00,,2013-10-31 08:52:00,
2013-10-31 02:11:00,59.0,33.0,29.85,NE,40,20.0,22.0,37,0.00,,,0.00,,2013-10-31 09:11:00,
2013-10-31 02:21:00,59.0,33.0,29.85,NE,40,20.0,22.0,37,0.00,,,0.00,,2013-10-31 09:21:00,
2013-10-31 03:53:00,59.0,31.0,29.85,NE,49,23.0,26.0,34,0.00,,,0.00,,2013-10-31 10:53:00,
2013-10-31 04:21:00,60.0,30.0,29.85,NE,46,20.0,25.0,32,0.00,,,0.00,,2013-10-31 11:21:00,
2013-10-31 04:33:00,60.0,30.0,29.85,NE,46,20.0,25.0,32,0.00,,,0.00,,2013-10-31 11:33:00,
2013-10-31 04:52:00,60.0,30.0,29.85,NE,52,15.0,24.0,32,0.00,,,0.00,,2013-10-31 11:52:00,
2013-10-31 05:12:00,59.0,30.0,29.85,NE,46,15.0,21.0,33,0.00,,,0.00,,2013-10-31 12:12:00,
2013-10-31 05:52:00,60.0,29.0,29.85,NE,46,19.0,25.0,31,0.00,,,0.00,,2013-10-31 12:52:00,
2013-10-31 06:11:00,60.0,29.0,29.86,NE,53,19.0,25.0,31,0.00,,,0.00,,2013-10-31 13:11:00,
2013-10-31 06:22:00,60.0,28.0,29.85,NE,53,18.0,24.0,30,0.00,,,0.00,,2013-10-31 13:22:00,
2013-10-31 10:22:00,65.0,29.0,29.89,East,85,10.0,19.0,26,0.00,,,0.00,,2013-10-31 17:22:00,
2013-10-31 10:33:00,65.0,29.0,29.89,East,85,10.0,19.0,26,0.00,,,0.00,,2013-10-31 17:33:00,
2013-10-31 10:52:00,65.0,29.0,29.90,East,88,9.0,19.0,26,0.00,,,0.00,,2013-10-31 17:52:00,
2013-10-31 11:21:00,67.0,31.0,29.90,East,80,8.0,20.0,26,0.00,,,0.00,,2013-10-31 18:21:00,
2013-10-31 11:32:00,67.0,31.0,29.90,East,80,8.0,20.0,26,0.00,,,0.00,,2013-10-31 18:32:00,
2013-10-31 11:52:00,67.0,30.0,29.90,SE,131,6.0,16.0,25,0.00,,,0.00,,2013-10-31 18:52:00,
2013-10-31 12:11:00,69.0,32.0,29.89,SE,144,9.0,12.0,25,0.00,,,0.00,,2013-10-31 19:11:00,
2013-10-31 12:21:00,69.0,32.0,29.89,SE,144,9.0,12.0,25,0.00,,,0.00,,2013-10-31 19:21:00,
2013-10-31 12:32:00,69.0,32.0,29.89,SE,144,9.0,12.0,25,0.00,,,0.00,,2013-10-31 19:32:00,
2013-10-31 12:52:00,68.0,39.0,29.88,SSE,168,5.0,9.0,34,0.00,,,0.00,,2013-10-31 19:52:00,
2013-10-31 13:02:00,68.0,39.0,29.88,SSE,168,5.0,9.0,34,0.00,,,0.00,,2013-10-31 20:02:00,
2013-10-31 13:11:00,68.0,39.0,29.88,SSE,168,5.0,9.0,34,0.00,,,0.00,,2013-10-31 20:11:00,
2013-10-31 13:21:00,68.0,39.0,29.88,SSE,168,5.0,9.0,34,0.00,,,0.00,,2013-10-31 20:21:00,
2013-10-31 13:52:00,67.0,42.0,29.86,SSE,168,4.0,9.0,40,0.00,,,0.00,,2013-10-31 20:52:00,
2013-10-31 14:11:00,67.0,42.0,29.85,South,172,1.0,8.0,40,0.00,,,0.00,,2013-10-31 21:11:00,
2013-10-31 14:21:00,67.0,42.0,29.85,South,172,1.0,8.0,40,0.00,,,0.00,,2013-10-31 21:21:00,
2013-10-31 14:33:00,67.0,42.0,29.85,South,172,1.0,8.0,40,0.00,,,0.00,,2013-10-31 21:33:00,
2013-10-31 15:13:00,66.0,43.0,29.83,SSE,154,4.0,9.0,44,0.00,,,0.00,,2013-10-31 22:13:00,
2013-10-31 15:24:00,66.0,43.0,29.83,SSE,154,4.0,9.0,44,0.00,,,0.00,,2013-10-31 22:24:00,
2013-10-31 15:33:00,66.0,43.0,29.83,SSE,154,4.0,9.0,44,0.00,,,0.00,,2013-10-31 22:33:00,
2013-10-31 16:22:00,66.0,40.0,29.82,North,0,0.0,4.0,38,0.00,,,0.00,,2013-10-31 23:22:00,
2013-10-31 16:34:00,66.0,40.0,29.82,North,0,0.0,4.0,38,0.00,,,0.00,,2013-10-31 23:34:00,
2013-10-31 16:53:00,68.0,39.0,29.82,North,0,0.0,6.0,34,0.00,,,0.00,,2013-10-31 23:53:00,
2013-10-31 17:21:00,67.0,39.0,29.82,North,0,0.0,2.0,36,0.00,,,0.00,,2013-11-01 00:21:00,
2013-10-31 17:32:00,67.0,39.0,29.82,North,0,0.0,2.0,36,0.00,,,0.00,,2013-11-01 00:32:00,
2013-10-31 17:42:00,67.0,39.0,29.82,North,0,0.0,2.0,36,0.00,,,0.00,,2013-11-01 00:42:00,
2013-10-31 17:52:00,67.0,39.0,29.82,North,0,0.0,2.0,36,0.00,,,0.00,,2013-11-01 00:52:00,
2013-10-31 18:22:00,67.0,37.0,29.81,North,7,2.0,7.0,33,0.00,,,0.00,,2013-11-01 01:22:00,
2013-10-31 18:32:00,67.0,37.0,29.81,North,7,2.0,7.0,33,0.00,,,0.00,,2013-11-01 01:32:00,
2013-10-31 18:52:00,66.0,38.0,29.81,North,356,4.0,8.0,35,0.00,,,0.00,,2013-11-01 01:52:00,
2013-10-31 19:21:00,65.0,36.0,29.82,NE,35,5.0,11.0,34,0.00,,,0.00,,2013-11-01 02:21:00,
2013-10-31 19:32:00,65.0,36.0,29.82,NE,35,5.0,11.0,34,0.00,,,0.00,,2013-11-01 02:32:00,
2013-10-31 19:52:00,65.0,33.0,29.82,NE,53,5.0,13.0,30,0.00,,,0.00,,2013-11-01 02:52:00,
2013-10-31 20:21:00,66.0,30.0,29.82,ENE,69,11.0,15.0,26,0.00,,,0.00,,2013-11-01 03:21:00,
2013-10-31 20:44:00,66.0,30.0,29.82,ENE,69,11.0,15.0,26,0.00,,,0.00,,2013-11-01 03:44:00,
2013-10-31 20:54:00,66.0,30.0,29.82,ENE,69,11.0,15.0,26,0.00,,,0.00,,2013-11-01 03:54:00,
2013-10-31 21:03:00,66.0,30.0,29.82,ENE,69,11.0,15.0,26,0.00,,,0.00,,2013-11-01 04:03:00,
2013-10-31 21:24:00,65.0,33.0,29.84,NNE,25,9.0,12.0,30,0.00,,,0.00,,2013-11-01 04:24:00,
2013-10-31 21:34:00,65.0,33.0,29.84,NNE,25,9.0,12.0,30,0.00,,,0.00,,2013-11-01 04:34:00,